| time (UTC) | temp F | wind direction | speed knots | gust knots | rain 1hr in | rain 24hr in | rain mn in | humidity % | barometer mb |
| 20260506051158 | 53 | 252 | 3.5 | 11.3 | 0.00 | 0.00 | 0.12 | 57 | 882.5 |
| 20260506050142 | 53 | 286 | 2.6 | 11.3 | 0.00 | 0.00 | 0.12 | 56 | 882.4 |
| 20260506044609 | 53 | 267 | 1.7 | 11.3 | 0.00 | 0.00 | 0.12 | 56 | 882.5 |
| 20260506044108 | 54 | 293 | 2.6 | 11.3 | 0.00 | 0.00 | 0.12 | 56 | 882.2 |
| 20260506043608 | 54 | 274 | 3.5 | 11.3 | 0.00 | 0.00 | 0.12 | 55 | 882.7 |
| 20260506042035 | 54 | 294 | 2.6 | 11.3 | 0.00 | 0.00 | 0.12 | 55 | 882.5 |
| 20260506041535 | 54 | 312 | 2.6 | 11.3 | 0.00 | 0.00 | 0.12 | 55 | 882.2 |
| 20260506041035 | 54 | 293 | 3.5 | 11.3 | 0.00 | 0.00 | 0.12 | 55 | 882.2 |
| 20260506040535 | 54 | 291 | 0.9 | 11.3 | 0.00 | 0.00 | 0.12 | 54 | 882.0 |
| 20260506040034 | 54 | 334 | 0.0 | 11.3 | 0.00 | 0.00 | 0.12 | 54 | 882.0 |
| 20260506035534 | 54 | 0 | 0.0 | 11.3 | 0.00 | 0.00 | 0.12 | 54 | 882.0 |
| 20260506035033 | 55 | 0 | 0.0 | 11.3 | 0.00 | 0.00 | 0.12 | 53 | 882.1 |
| 20260506034532 | 55 | 346 | 0.0 | 11.3 | 0.00 | 0.00 | 0.12 | 52 | 882.1 |
| 20260506034031 | 55 | 321 | 2.6 | 11.3 | 0.00 | 0.00 | 0.12 | 52 | 881.6 |
| 20260506033014 | 55 | 315 | 3.5 | 11.3 | 0.00 | 0.00 | 0.12 | 51 | 881.6 |
| 20260506031958 | 56 | 323 | 5.2 | 11.3 | 0.00 | 0.00 | 0.12 | 50 | 881.6 |
| 20260506031458 | 56 | 340 | 3.5 | 10.4 | 0.00 | 0.00 | 0.12 | 50 | 881.5 |
| 20260506030957 | 56 | 303 | 5.2 | 11.3 | 0.00 | 0.00 | 0.12 | 50 | 881.2 |
| 20260506030456 | 56 | 315 | 4.3 | 11.3 | 0.00 | 0.00 | 0.12 | 50 | 881.2 |
| 20260506025955 | 56 | 307 | 3.5 | 10.4 | 0.00 | 0.00 | 0.12 | 49 | 881.2 |
| 20260506025453 | 56 | 327 | 4.3 | 10.4 | 0.00 | 0.00 | 0.12 | 49 | 881.1 |
| 20260506024952 | 57 | 354 | 5.2 | 10.4 | 0.00 | 0.00 | 0.12 | 48 | 881.4 |
| 20260506023935 | 57 | 321 | 3.5 | 9.6 | 0.00 | 0.00 | 0.12 | 47 | 880.9 |
| 20260506022918 | 57 | 299 | 2.6 | 10.4 | 0.00 | 0.00 | 0.12 | 45 | 880.8 |
| 20260506022416 | 58 | 281 | 3.5 | 10.4 | 0.00 | 0.00 | 0.12 | 44 | 880.9 |
| 20260506021915 | 58 | 295 | 3.5 | 12.2 | 0.00 | 0.00 | 0.12 | 43 | 880.8 |
| 20260506021413 | 58 | 315 | 4.3 | 12.2 | 0.00 | 0.00 | 0.12 | 43 | 880.4 |
| 20260506020356 | 58 | 310 | 3.5 | 10.4 | 0.00 | 0.00 | 0.12 | 42 | 880.0 |
| 20260506015855 | 58 | 291 | 5.2 | 13.9 | 0.00 | 0.00 | 0.12 | 42 | 880.1 |
| 20260506015354 | 59 | 277 | 3.5 | 16.5 | 0.00 | 0.00 | 0.12 | 41 | 880.2 |
| 20260506014852 | 59 | 291 | 7.0 | 16.5 | 0.00 | 0.00 | 0.12 | 41 | 880.2 |
| 20260506014351 | 60 | 294 | 7.8 | 15.6 | 0.00 | 0.00 | 0.12 | 41 | 880.0 |
| 20260506013334 | 60 | 0 | 4.3 | 17.4 | 0.00 | 0.00 | 0.12 | 39 | 880.1 |
| 20260506012833 | 60 | 317 | 7.8 | 17.4 | 0.00 | 0.00 | 0.12 | 37 | 879.9 |
| 20260506012333 | 61 | 308 | 7.8 | 16.5 | 0.00 | 0.00 | 0.12 | 37 | 879.8 |
| 20260506011832 | 61 | 248 | 6.1 | 15.6 | 0.00 | 0.00 | 0.12 | 34 | 879.9 |
| 20260506011332 | 62 | 328 | 3.5 | 13.9 | 0.00 | 0.00 | 0.12 | 33 | 879.8 |
| 20260506010314 | 62 | 343 | 7.8 | 18.2 | 0.00 | 0.00 | 0.12 | 33 | 879.7 |
| 20260506005813 | 62 | 312 | 6.1 | 17.4 | 0.00 | 0.00 | 0.12 | 34 | 879.3 |
| 20260506005312 | 62 | 323 | 6.1 | 17.4 | 0.00 | 0.00 | 0.12 | 34 | 879.6 |
| 20260506004811 | 63 | 306 | 5.2 | 18.2 | 0.00 | 0.00 | 0.12 | 32 | 879.4 |
| 20260506004310 | 63 | 328 | 7.8 | 18.2 | 0.00 | 0.00 | 0.12 | 32 | 879.7 |
| 20260506003254 | 63 | 330 | 8.7 | 16.5 | 0.00 | 0.00 | 0.12 | 33 | 879.3 |
| 20260506002753 | 64 | 325 | 5.2 | 15.6 | 0.00 | 0.00 | 0.12 | 33 | 879.3 |
| 20260506002251 | 64 | 297 | 7.0 | 15.6 | 0.00 | 0.00 | 0.12 | 33 | 879.1 |
| 20260506001750 | 64 | 287 | 7.0 | 15.6 | 0.00 | 0.00 | 0.12 | 34 | 879.5 |
| 20260506001249 | 64 | 335 | 7.8 | 17.4 | 0.00 | 0.00 | 0.12 | 34 | 879.0 |
| 20260506000233 | 65 | 266 | 6.1 | 16.5 | 0.00 | 0.00 | 0.12 | 33 | 879.5 |
| 20260505235732 | 65 | 274 | 7.0 | 18.2 | 0.00 | 0.00 | 0.12 | 34 | 879.3 |
| 20260505235231 | 65 | 306 | 4.3 | 18.2 | 0.00 | 0.00 | 0.12 | 33 | 879.2 |
| 20260505234731 | 65 | 297 | 5.2 | 16.5 | 0.00 | 0.00 | 0.12 | 33 | 879.3 |
| 20260505234230 | 65 | 304 | 7.0 | 13.9 | 0.00 | 0.00 | 0.12 | 32 | 878.8 |
| 20260505233730 | 65 | 292 | 7.0 | 15.6 | 0.00 | 0.00 | 0.12 | 33 | 879.5 |
| 20260505233228 | 66 | 330 | 7.8 | 15.6 | 0.00 | 0.00 | 0.12 | 32 | 879.2 |
| 20260505232727 | 66 | 317 | 7.8 | 13.9 | 0.00 | 0.00 | 0.12 | 32 | 878.8 |
| 20260505231711 | 66 | 280 | 6.1 | 18.2 | 0.00 | 0.00 | 0.12 | 32 | 879.1 |
| 20260505231210 | 66 | 321 | 7.8 | 17.4 | 0.00 | 0.00 | 0.12 | 33 | 879.0 |
| 20260505230709 | 66 | 281 | 7.8 | 17.4 | 0.00 | 0.00 | 0.12 | 34 | 878.9 |
| 20260505225652 | 66 | 319 | 5.2 | 20.0 | 0.00 | 0.00 | 0.12 | 35 | 879.0 |
| 20260505225151 | 66 | 307 | 7.0 | 20.0 | 0.00 | 0.00 | 0.12 | 34 | 879.2 |
| 20260505224650 | 67 | 340 | 5.2 | 15.6 | 0.00 | 0.00 | 0.12 | 33 | 879.0 |
| 20260505224149 | 66 | 283 | 5.2 | 15.6 | 0.00 | 0.00 | 0.12 | 34 | 879.2 |
| 20260505223649 | 67 | 317 | 7.0 | 15.6 | 0.00 | 0.00 | 0.12 | 32 | 879.1 |
| 20260505223147 | 67 | 353 | 6.1 | 13.0 | 0.00 | 0.00 | 0.12 | 34 | 879.3 |
| 20260505222646 | 67 | 300 | 6.1 | 13.9 | 0.00 | 0.00 | 0.12 | 34 | 879.3 |
| 20260505222145 | 66 | 276 | 7.8 | 16.5 | 0.00 | 0.00 | 0.12 | 35 | 879.5 |
| 20260505221645 | 66 | 282 | 8.7 | 16.5 | 0.00 | 0.00 | 0.12 | 34 | 878.9 |
| 20260505221143 | 65 | 263 | 5.2 | 13.9 | 0.00 | 0.00 | 0.12 | 35 | 879.5 |
| 20260505220643 | 65 | 274 | 7.0 | 16.5 | 0.00 | 0.00 | 0.12 | 37 | 879.5 |
| 20260505220141 | 64 | 256 | 7.8 | 16.5 | 0.00 | 0.00 | 0.12 | 38 | 879.6 |
| 20260505215640 | 64 | 288 | 4.3 | 13.9 | 0.00 | 0.00 | 0.12 | 35 | 879.4 |
| 20260505214633 | 64 | 237 | 7.8 | 13.9 | 0.00 | 0.00 | 0.12 | 35 | 879.5 |
| 20260505213617 | 64 | 251 | 7.8 | 15.6 | 0.00 | 0.00 | 0.12 | 36 | 879.6 |
| 20260505213116 | 64 | 288 | 5.2 | 13.9 | 0.00 | 0.00 | 0.12 | 36 | 879.4 |
| 20260505212616 | 65 | 216 | 3.5 | 16.5 | 0.00 | 0.00 | 0.12 | 36 | 879.7 |
| 20260505212114 | 65 | 292 | 8.7 | 20.0 | 0.00 | 0.00 | 0.12 | 35 | 879.7 |
| 20260505211613 | 65 | 274 | 7.0 | 13.0 | 0.00 | 0.00 | 0.12 | 35 | 880.0 |
| 20260505211113 | 65 | 261 | 6.1 | 13.9 | 0.00 | 0.00 | 0.12 | 36 | 879.7 |
| 20260505210612 | 64 | 277 | 8.7 | 16.5 | 0.00 | 0.00 | 0.12 | 36 | 879.7 |
| 20260505205040 | 65 | 253 | 6.1 | 19.1 | 0.00 | 0.00 | 0.12 | 42 | 880.1 |
| 20260505204538 | 65 | 290 | 7.0 | 13.0 | 0.00 | 0.00 | 0.12 | 39 | 880.0 |
| 20260505204038 | 65 | 148 | 4.3 | 15.6 | 0.00 | 0.00 | 0.12 | 42 | 880.1 |
| 20260505203537 | 65 | 275 | 6.1 | 24.3 | 0.00 | 0.00 | 0.12 | 42 | 880.0 |
| 20260505203036 | 66 | 284 | 7.8 | 24.3 | 0.00 | 0.00 | 0.12 | 40 | 879.7 |
| 20260505202535 | 67 | 264 | 4.3 | 12.2 | 0.00 | 0.00 | 0.12 | 35 | 880.0 |
| 20260505202034 | 67 | 335 | 1.7 | 10.4 | 0.00 | 0.00 | 0.12 | 41 | 880.1 |
| 20260505201533 | 66 | 276 | 4.3 | 11.3 | 0.00 | 0.00 | 0.12 | 41 | 880.0 |
| 20260505200516 | 66 | 233 | 7.0 | 17.4 | 0.00 | 0.00 | 0.12 | 41 | 879.8 |
| 20260505195500 | 66 | 280 | 7.0 | 17.4 | 0.00 | 0.00 | 0.12 | 43 | 880.0 |
| 20260505194959 | 66 | 278 | 7.8 | 13.9 | 0.00 | 0.00 | 0.12 | 42 | 880.1 |
| 20260505194458 | 66 | 312 | 5.2 | 11.3 | 0.00 | 0.00 | 0.12 | 43 | 880.2 |
| 20260505193957 | 66 | 241 | 3.5 | 12.2 | 0.00 | 0.00 | 0.12 | 45 | 880.3 |
| 20260505193456 | 66 | 272 | 5.2 | 12.2 | 0.00 | 0.00 | 0.12 | 45 | 880.0 |
| 20260505192956 | 66 | 265 | 4.3 | 12.2 | 0.00 | 0.00 | 0.12 | 43 | 880.2 |
| 20260505192455 | 66 | 283 | 4.3 | 9.6 | 0.00 | 0.00 | 0.12 | 43 | 880.3 |
| 20260505191438 | 65 | 242 | 3.5 | 17.4 | 0.00 | 0.00 | 0.12 | 46 | 880.3 |
| 20260505190937 | 64 | 278 | 7.8 | 17.4 | 0.00 | 0.00 | 0.12 | 49 | 880.3 |
| 20260505190436 | 63 | 281 | 4.3 | 13.0 | 0.00 | 0.00 | 0.12 | 48 | 880.5 |
| 20260505185935 | 62 | 280 | 7.8 | 13.0 | 0.00 | 0.00 | 0.12 | 52 | 880.6 |
| 20260505184915 | 62 | 273 | 8.7 | 15.6 | 0.00 | 0.00 | 0.12 | 52 | 881.0 |
| 20260505184414 | 62 | 292 | 4.3 | 16.5 | 0.00 | 0.00 | 0.12 | 53 | 880.8 |
| 20260505183358 | 60 | 277 | 5.2 | 13.0 | 0.00 | 0.00 | 0.12 | 58 | 881.2 |
| 20260505182857 | 60 | 296 | 3.5 | 9.6 | 0.00 | 0.00 | 0.12 | 62 | 881.0 |
| 20260505182356 | 60 | 322 | 2.6 | 9.6 | 0.00 | 0.00 | 0.12 | 63 | 881.0 |
| 20260505181855 | 60 | 300 | 5.2 | 9.6 | 0.00 | 0.00 | 0.12 | 62 | 881.2 |
| 20260505181354 | 60 | 311 | 4.3 | 9.6 | 0.00 | 0.00 | 0.12 | 64 | 881.1 |
| 20260505180853 | 60 | 307 | 3.5 | 9.6 | 0.00 | 0.00 | 0.12 | 65 | 881.3 |
| 20260505175837 | 59 | 215 | 0.9 | 9.6 | 0.00 | 0.00 | 0.12 | 68 | 881.0 |
| 20260505174821 | 60 | 294 | 5.2 | 9.6 | 0.00 | 0.00 | 0.12 | 66 | 881.2 |
| 20260505174320 | 61 | 286 | 2.6 | 9.6 | 0.00 | 0.00 | 0.12 | 65 | 881.1 |
| 20260505173819 | 61 | 309 | 3.5 | 9.6 | 0.00 | 0.00 | 0.12 | 67 | 881.3 |
| 20260505173318 | 61 | 317 | 0.9 | 9.6 | 0.00 | 0.00 | 0.12 | 69 | 881.4 |
| 20260505172817 | 60 | 341 | 2.6 | 9.6 | 0.00 | 0.00 | 0.12 | 73 | 881.1 |
| 20260505172316 | 59 | 299 | 1.7 | 9.6 | 0.00 | 0.00 | 0.12 | 69 | 881.1 |
| 20260505171816 | 60 | 336 | 3.5 | 9.6 | 0.00 | 0.00 | 0.12 | 73 | 880.9 |
| 20260505171315 | 59 | 352 | 2.6 | 9.6 | 0.00 | 0.00 | 0.12 | 70 | 881.1 |
| 20260505170814 | 58 | 257 | 0.9 | 9.6 | 0.00 | 0.00 | 0.12 | 71 | 881.1 |
| 20260505165758 | 58 | 321 | 4.3 | 11.3 | 0.00 | 0.00 | 0.12 | 71 | 881.0 |
| 20260505165256 | 59 | 262 | 3.5 | 9.6 | 0.00 | 0.00 | 0.12 | 68 | 881.3 |
| 20260505164755 | 58 | 295 | 2.6 | 11.3 | 0.00 | 0.00 | 0.12 | 71 | 881.1 |
| 20260505164254 | 58 | 256 | 1.7 | 11.3 | 0.00 | 0.00 | 0.12 | 72 | 881.3 |
| 20260505163754 | 58 | 297 | 5.2 | 10.4 | 0.00 | 0.00 | 0.12 | 71 | 881.1 |
| 20260505162737 | 58 | 317 | 3.5 | 10.4 | 0.00 | 0.00 | 0.12 | 75 | 880.9 |
| 20260505162236 | 57 | 306 | 0.9 | 10.4 | 0.00 | 0.00 | 0.12 | 78 | 881.2 |
| 20260505161735 | 56 | 306 | 0.0 | 10.4 | 0.00 | 0.00 | 0.12 | 83 | 881.0 |
| 20260505161234 | 56 | 348 | 0.9 | 10.4 | 0.00 | 0.00 | 0.12 | 83 | 881.1 |
| 20260505160734 | 56 | 332 | 0.9 | 10.4 | 0.00 | 0.00 | 0.12 | 83 | 881.2 |
| 20260505160233 | 56 | 356 | 1.7 | 10.4 | 0.00 | 0.00 | 0.12 | 83 | 881.3 |
| 20260505153215 | 55 | 312 | 0.9 | 10.4 | 0.00 | 0.00 | 0.12 | 84 | 881.3 |
| 20260505152714 | 55 | 298 | 0.0 | 10.4 | 0.00 | 0.00 | 0.12 | 83 | 881.3 |
| 20260505152214 | 54 | 288 | 0.9 | 10.4 | 0.00 | 0.00 | 0.12 | 81 | 881.0 |
| 20260505151713 | 55 | 292 | 1.7 | 10.4 | 0.00 | 0.00 | 0.12 | 81 | 881.1 |
| 20260505151213 | 55 | 257 | 0.9 | 10.4 | 0.00 | 0.00 | 0.12 | 81 | 881.1 |
| 20260505150712 | 54 | 256 | 0.0 | 10.4 | 0.00 | 0.00 | 0.12 | 81 | 880.9 |
| 20260505150210 | 54 | 237 | 0.9 | 10.4 | 0.00 | 0.00 | 0.12 | 82 | 881.2 |
| 20260505140203 | 52 | 187 | 0.0 | 10.4 | 0.00 | 0.00 | 0.12 | 88 | 880.8 |
| 20260505130155 | 50 | 108 | 3.5 | 11.3 | 0.05 | 0.00 | 0.12 | 90 | 880.2 |
| 20260505124638 | 50 | 137 | 3.5 | 9.6 | 0.05 | 0.00 | 0.12 | 90 | 880.0 |
| 20260505123106 | 50 | 121 | 1.7 | 10.4 | 0.04 | 0.00 | 0.11 | 91 | 880.2 |
| 20260505122605 | 50 | 65 | 3.5 | 13.0 | 0.04 | 0.00 | 0.11 | 91 | 880.2 |
| 20260505122105 | 50 | 107 | 4.3 | 13.0 | 0.04 | 0.00 | 0.11 | 90 | 880.2 |
| 20260505121604 | 50 | 139 | 2.6 | 13.0 | 0.05 | 0.00 | 0.11 | 90 | 880.1 |
| 20260505120548 | 50 | 135 | 6.1 | 12.2 | 0.00 | 0.00 | 0.06 | 87 | 880.4 |
| 20260505120047 | 50 | 76 | 3.5 | 9.6 | 0.00 | 0.00 | 0.06 | 89 | 879.7 |
| 20260505115547 | 50 | 119 | 5.2 | 11.3 | 0.00 | 0.00 | 0.06 | 89 | 879.7 |
| 20260505115046 | 50 | 127 | 5.2 | 13.9 | 0.00 | 0.00 | 0.06 | 91 | 879.5 |
| 20260505114546 | 50 | 111 | 6.1 | 13.9 | 0.00 | 0.00 | 0.06 | 91 | 879.4 |
| 20260505113530 | 50 | 111 | 7.0 | 13.9 | 0.00 | 0.00 | 0.06 | 91 | 879.4 |
| 20260505113029 | 50 | 138 | 4.3 | 16.5 | 0.00 | 0.00 | 0.06 | 91 | 879.8 |
| 20260505112529 | 50 | 128 | 4.3 | 16.5 | 0.00 | 0.00 | 0.06 | 91 | 879.9 |
| 20260505112028 | 50 | 131 | 6.1 | 12.2 | 0.00 | 0.00 | 0.06 | 90 | 880.4 |
| 20260505111528 | 50 | 173 | 4.3 | 12.2 | 0.00 | 0.00 | 0.06 | 90 | 880.3 |
| 20260505110511 | 50 | 141 | 5.2 | 12.2 | 0.00 | 0.00 | 0.06 | 90 | 880.4 |
| 20260505101948 | 50 | 113 | 7.8 | 16.5 | 0.01 | 0.00 | 0.06 | 87 | 880.3 |
| 20260505101447 | 51 | 124 | 7.0 | 13.9 | 0.02 | 0.00 | 0.06 | 86 | 880.8 |
| 20260505100946 | 51 | 153 | 6.1 | 13.0 | 0.01 | 0.00 | 0.05 | 85 | 880.9 |
| 20260505100445 | 51 | 155 | 7.0 | 12.2 | 0.01 | 0.00 | 0.05 | 84 | 881.4 |
| 20260505095944 | 51 | 155 | 7.0 | 12.2 | 0.01 | 0.00 | 0.05 | 84 | 880.9 |
| 20260505095443 | 51 | 150 | 7.0 | 12.2 | 0.01 | 0.00 | 0.05 | 83 | 881.1 |
| 20260505094943 | 51 | 112 | 4.3 | 12.2 | 0.03 | 0.00 | 0.05 | 85 | 881.1 |
| 20260505094443 | 51 | 137 | 5.2 | 11.3 | 0.03 | 0.00 | 0.05 | 85 | 881.2 |
| 20260505093943 | 51 | 131 | 5.2 | 11.3 | 0.04 | 0.00 | 0.05 | 84 | 881.3 |
| 20260505093441 | 51 | 139 | 2.6 | 11.3 | 0.03 | 0.00 | 0.04 | 85 | 881.7 |
| 20260505092940 | 51 | 92 | 2.6 | 11.3 | 0.03 | 0.00 | 0.04 | 86 | 881.8 |
| 20260505092439 | 51 | 290 | 0.0 | 11.3 | 0.03 | 0.00 | 0.04 | 89 | 882.1 |
| 20260505091938 | 51 | 222 | 1.7 | 11.3 | 0.04 | 0.00 | 0.04 | 91 | 881.9 |
| 20260505091437 | 51 | 215 | 0.9 | 11.3 | 0.04 | 0.00 | 0.04 | 92 | 882.3 |
| 20260505090936 | 51 | 242 | 0.0 | 11.3 | 0.03 | 0.00 | 0.03 | 92 | 882.2 |
| 20260505090436 | 51 | 299 | 0.9 | 11.3 | 0.03 | 0.00 | 0.03 | 92 | 882.2 |
| 20260505085935 | 51 | 136 | 0.9 | 11.3 | 0.03 | 0.00 | 0.03 | 92 | 882.6 |
| 20260505085434 | 51 | 289 | 1.7 | 11.3 | 0.03 | 0.00 | 0.03 | 92 | 882.5 |
| 20260505084933 | 51 | 274 | 1.7 | 11.3 | 0.01 | 0.00 | 0.01 | 91 | 882.6 |
| 20260505084433 | 51 | 297 | 3.5 | 11.3 | 0.01 | 0.00 | 0.01 | 91 | 882.9 |
| 20260505083932 | 52 | 108 | 1.7 | 11.3 | 0.01 | 0.00 | 0.01 | 91 | 882.8 |
| 20260505082915 | 52 | 284 | 4.3 | 10.4 | 0.00 | 0.00 | 0.00 | 90 | 883.1 |
| 20260505082414 | 52 | 267 | 4.3 | 10.4 | 0.00 | 0.00 | 0.00 | 90 | 883.3 |
| 20260505081913 | 52 | 307 | 4.3 | 9.6 | 0.00 | 0.00 | 0.00 | 89 | 882.9 |
| 20260505081412 | 52 | 258 | 1.7 | 9.6 | 0.00 | 0.00 | 0.00 | 88 | 883.2 |
| 20260505080911 | 53 | 269 | 2.6 | 9.6 | 0.00 | 0.00 | 0.00 | 87 | 883.0 |
| 20260505080410 | 53 | 292 | 1.7 | 9.6 | 0.00 | 0.00 | 0.00 | 86 | 883.4 |
| 20260505075354 | 54 | 36 | 0.9 | 9.6 | 0.00 | 0.00 | 0.00 | 83 | 883.5 |
| 20260505074854 | 54 | 262 | 2.6 | 9.6 | 0.00 | 0.00 | 0.00 | 81 | 883.3 |
| 20260505074353 | 54 | 270 | 3.5 | 9.6 | 0.00 | 0.00 | 0.00 | 79 | 883.4 |
| 20260505073852 | 54 | 287 | 4.3 | 9.6 | 0.00 | 0.00 | 0.00 | 78 | 883.3 |
| 20260505073351 | 54 | 279 | 1.7 | 9.6 | 0.00 | 0.00 | 0.00 | 77 | 883.4 |
| 20260505072850 | 55 | 287 | 3.5 | 12.2 | 0.00 | 0.00 | 0.00 | 76 | 883.3 |
| 20260505072350 | 55 | 273 | 1.7 | 12.2 | 0.00 | 0.00 | 0.00 | 76 | 883.2 |
| 20260505071849 | 55 | 292 | 4.3 | 11.3 | 0.00 | 0.00 | 0.00 | 75 | 883.3 |
| 20260505070832 | 55 | 271 | 3.5 | 11.3 | 0.00 | 0.00 | 0.00 | 75 | 883.3 |
| 20260505070331 | 55 | 290 | 3.5 | 11.3 | 0.00 | 0.00 | 0.00 | 76 | 883.2 |
| 20260505065831 | 55 | 286 | 1.7 | 11.3 | 0.00 | 0.00 | 0.00 | 76 | 883.1 |
| 20260505065330 | 55 | 299 | 2.6 | 11.3 | 0.00 | 0.00 | 0.00 | 76 | 883.1 |
| 20260505064829 | 55 | 276 | 1.7 | 11.3 | 0.00 | 0.00 | 0.00 | 76 | 883.3 |
| 20260505064328 | 55 | 310 | 3.5 | 11.3 | 0.00 | 0.00 | 0.00 | 76 | 883.4 |
| 20260505063828 | 55 | 305 | 3.5 | 11.3 | 0.00 | 0.00 | 0.00 | 75 | 883.2 |
| 20260505062812 | 55 | 284 | 4.3 | 11.3 | 0.00 | 0.00 | 0.00 | 74 | 883.5 |
| 20260505062311 | 56 | 307 | 4.3 | 11.3 | 0.00 | 0.00 | 0.00 | 74 | 883.4 |
| 20260505061810 | 56 | 298 | 5.2 | 11.3 | 0.00 | 0.00 | 0.00 | 73 | 883.0 |
| 20260505061309 | 56 | 278 | 5.2 | 11.3 | 0.00 | 0.00 | 0.00 | 73 | 883.1 |
| 20260505060808 | 56 | 286 | 3.5 | 10.4 | 0.00 | 0.00 | 0.00 | 73 | 883.1 |
| 20260505060307 | 56 | 292 | 3.5 | 10.4 | 0.00 | 0.00 | 0.00 | 73 | 883.3 |